Location: Unspecified
(50.4000°N, 0.0000°E)
Time: 18:18:28
(UTC+00:00)

OBJECT A - Visible Passes

Search period start: 04 April 2026 00:00
Search period end: 14 April 2026 00:00
Orbit: 452 x 1072 km, 58.7° (Epoch: 29 March)

Date Brightness Start Highest point End Pass type
(mag) Time Alt. Az. Time Alt. Az. Time Alt. Az.
4 Apr ? 00:09:39 17° NE 00:09:39 17° NE 00:10:54 10° NE visible
4 Apr ? 01:49:42 25° NNW 01:51:05 30° N 01:55:34 10° ENE visible
4 Apr ? 03:30:59 10° NW 03:35:35 49° NNE 03:41:07 10° E visible
4 Apr ? 23:30:26 11° NE 23:30:26 11° NE 23:30:34 10° NE visible
5 Apr ? 01:10:30 29° N 01:10:38 29° N 01:14:58 10° ENE visible
5 Apr ? 02:50:49 10° NW 02:55:13 41° NNE 03:00:27 10° E visible
5 Apr ? 04:34:14 10° NW 04:39:13 74° SW 04:45:12 10° SE visible
6 Apr ? 00:31:15 27° NNE 00:31:15 27° NNE 00:34:26 10° NE visible
6 Apr ? 02:11:18 14° NW 02:14:49 36° NNE 02:19:45 10° E visible
6 Apr ? 03:54:04 10° NW 03:58:58 87° NE 04:04:52 10° SE visible
6 Apr ? 23:51:57 21° NE 23:51:57 21° NE 23:53:58 10° NE visible
7 Apr ? 01:32:00 20° NW 01:34:24 32° NNE 01:39:02 10° ENE visible
7 Apr ? 03:13:54 10° NW 03:18:40 69° NNE 03:24:25 10° ESE visible
7 Apr ? 23:12:34 15° NE 23:12:34 15° NE 23:13:34 10° NE visible
8 Apr ? 00:52:36 25° NNW 00:53:57 29° N 00:58:21 10° ENE visible
8 Apr ? 02:33:46 10° NW 02:38:21 55° NNE 02:43:51 10° ESE visible
8 Apr ? 04:17:16 10° WNW 04:22:05 46° SW 04:27:46 10° SSE visible
8 Apr ? 20:42:00 10° SSW 20:43:06 18° SSW 20:43:06 18° SSW visible
8 Apr ? 22:32:55 12° NE 22:32:55 12° NE 22:33:12 10° NE visible
9 Apr ? 00:12:54 27° NNW 00:13:29 28° N 00:17:43 10° ENE visible
9 Apr ? 01:53:36 10° NW 01:57:59 45° NNE 02:03:13 10° E visible
9 Apr ? 03:37:01 10° WNW 03:41:52 62° SW 03:47:41 10° SE visible
9 Apr ? 20:02:17 10° S 20:05:22 27° SE 20:08:44 10° ENE visible
9 Apr ? 21:45:00 10° WSW 21:48:39 54° NNW 21:52:53 10° NE visible
9 Apr ? 23:29:28 10° WNW 23:33:02 28° N 23:37:08 10° ENE visible
10 Apr ? 01:13:26 10° NW 01:17:36 38° NNE 01:22:31 10° E visible
10 Apr ? 02:56:48 10° NW 03:01:37 81° SW 03:07:25 10° SE visible
10 Apr ? 04:41:04 10° WNW 04:44:56 21° SW 04:49:16 10° S visible
10 Apr ? 19:22:54 10° SSE 19:25:24 18° ESE 19:28:02 10° E visible
10 Apr ? 21:04:44 10° WSW 21:08:23 73° NW 21:12:34 10° NE visible
10 Apr ? 22:49:04 10° WNW 22:52:34 29° N 22:56:37 10° NE visible
11 Apr ? 00:33:13 10° NW 00:37:11 33° NNE 00:41:48 10° E visible
11 Apr ? 02:16:38 10° NW 02:21:20 79° NE 02:27:01 10° ESE visible
11 Apr ? 04:00:29 10° WNW 04:04:49 28° SW 04:09:48 10° S visible
11 Apr ? 20:24:35 10° SW 20:28:10 79° SE 20:32:16 10° NE visible
11 Apr ? 22:08:38 10° W 22:12:09 32° NNW 22:16:11 10° NE visible
11 Apr ? 23:52:59 10° NW 23:56:44 30° N 00:01:05 10° ENE visible
12 Apr ? 01:36:29 10° NW 01:41:02 62° NNE 01:46:30 10° ESE visible
12 Apr ? 03:20:04 10° WNW 03:24:39 38° SW 03:30:01 10° SSE visible
12 Apr ? 19:44:33 10° SSW 19:48:01 53° SE 19:51:55 10° ENE visible
12 Apr ? 21:28:12 10° W 21:31:45 37° NNW 21:35:48 10° NE visible
12 Apr ? 23:12:41 10° NW 23:16:16 28° N 23:20:24 10° ENE visible
13 Apr ? 00:56:19 10° NW 01:00:41 49° NNE 01:05:54 10° ESE visible
13 Apr ? 02:39:46 10° WNW 02:44:26 51° SW 02:50:02 10° SSE visible
13 Apr ? 04:25:38 10° W 04:27:28 12° WSW 04:29:24 10° SW visible
13 Apr ? 20:47:48 10° W 20:51:23 46° NNW 20:55:27 10° NE visible
13 Apr ? 22:32:20 10° WNW 22:35:48 27° N 22:39:47 10° ENE visible
